Location: New Mesquite
(33.1168°N, 96.4336°W)
Time: 14:35:28
(UTC+00:00)

ISS - Visible Passes

Search period start: 04 December 2022 00:00
Search period end: 14 December 2022 00:00
Orbit: 414 x 420 km, 51.6° (Epoch: 04 December)

Date Brightness Start Highest point End Pass type
(mag) Time Alt. Az. Time Alt. Az. Time Alt. Az.
04 Dec -1.6 00:41:10 10° NNW 00:42:10 15° N 00:42:10 15° N visible
04 Dec -1.6 23:53:51 10° N 23:55:16 12° NNE 23:56:37 10° NE visible
05 Dec -0.9 01:29:03 10° NW 01:29:36 14° NW 01:29:36 14° NW visible
06 Dec -3.7 00:40:58 10° NW 00:44:15 52° NE 00:44:20 51° NE visible
06 Dec -2.8 23:53:04 10° NNW 23:56:01 28° NE 23:58:57 10° E visible
07 Dec -1.2 01:30:05 10° WNW 01:32:29 20° SW 01:32:29 20° SW visible
08 Dec -2.4 00:41:25 10° WNW 00:44:33 40° SW 00:47:41 10° SSE visible
08 Dec -3.7 23:53:04 10° NW 23:56:25 84° SW 23:59:44 10° SE visible
10 Dec -0.3 00:43:23 10° WSW 00:44:34 11° SW 00:45:45 10° SSW visible
10 Dec -0.8 23:53:51 10° WNW 23:56:30 22° SW 23:59:07 10° S visible
